Weather History for Davenport, IA

Change the Weather History Date:

Tuesday, September 3, 2013

  Actual Average Record
Temperature  
Mean Temperature 62 °F 68 °F  
Max Temperature 78 °F 79 °F 95 °F (1960)
Min Temperature 46 °F 57 °F 46 °F (1974)
Degree Days  
Heating Degree Days 3 1  
Month to date heating degree days 3 3  
Since 1 July heating degree days 22 17  
Cooling Degree Days 0 4  
Month to date cooling degree days 11 12  
Year to date cooling degree days 784 716  
Growing Degree Days 12 (Base 50)    
Moisture  
Dew Point 51 °F    
Average Humidity 68    
Maximum Humidity 93    
Minimum Humidity 43    
Precipitation  
Precipitation 0.00 in 0.09 in 2.30 in (1970)
Month to date precipitation T 0.28  
Year to date precipitation 28.39 26.10  
Snow  
Snow 0.00 in - - ()
Month to date snowfall 0.0  
Since 1 July snowfall 0.0  
Since 1 September snowfall 0.0  
Snow Depth 0.00 in    
Sea Level Pressure  
Sea Level Pressure 30.07 in    
Wind  
Wind Speed 2 mph (NW)    
Max Wind Speed 7 mph    
Max Gust Speed 10 mph    
Visibility 10 miles    
Events      
T = Trace of Precipitation, MM = Missing Value Source: NWS Daily Summary

Daily Weather History Graph

Daily Weather History Graph

Search for Another Location

Airport:

Trip Planner

Search our weather history database for the weather conditions in past years. The results will help you decide how hot, cold, wet, or windy it might be!

Date:

Astronomy

Sep. 03, 2013 Rise Set
Actual Time 6:30 AM CDT 7:31 PM CDT
Civil Twilight 6:02 AM CDT 8:00 PM CDT
Nautical Twilight 5:28 AM CDT 8:33 PM CDT
Astronomical Twilight 4:53 AM CDT 9:09 PM CDT
Moon 4:44 AM CDT (9/3) 6:19 PM CDT (9/3)
Length of Visible Light 13h 57m
Length of Day
13h 01m
Waning Crescent, 3% of the Moon is Illuminated
Sep 3
Waning Crescent
Sep 5
New
Sep 12
First Quarter
Sep 19
Full
Sep 26
Last Quarter

Hourly Weather History & Observations

Time (CDT) Temp. Dew Point Humidity Pressure Visibility Wind Dir Wind Speed Gust Speed Precip Events Conditions
12:52 AM 53.1 °F 50.0 °F 89% 30.04 in 10.0 mi North 4.6 mph - N/A   Clear
1:52 AM 52.0 °F 48.9 °F 89% 30.04 in 10.0 mi North 3.5 mph - N/A   Clear
2:52 AM 52.0 °F 48.9 °F 89% 30.05 in 10.0 mi NW 3.5 mph - N/A   Clear
3:52 AM 50.0 °F 48.0 °F 93% 30.06 in 10.0 mi NW 5.8 mph - N/A   Clear
4:52 AM 50.0 °F 48.0 °F 93% 30.05 in 10.0 mi NW 4.6 mph - N/A   Clear
5:52 AM 48.0 °F 46.0 °F 93% 30.07 in 10.0 mi Calm Calm - N/A   Clear
6:52 AM 48.0 °F 46.0 °F 93% 30.10 in 10.0 mi Calm Calm - N/A   Clear
7:52 AM 54.0 °F 51.1 °F 90% 30.10 in 10.0 mi Calm Calm - N/A   Clear
8:52 AM 61.0 °F 54.0 °F 78% 30.11 in 10.0 mi Calm Calm - N/A   Clear
9:52 AM - - N/A% 30.12 in 10.0 mi Calm Calm - N/A   Clear
10:52 AM 68.0 °F 52.0 °F 56% 30.11 in - Calm Calm - N/A   Unknown
11:52 AM 71.1 °F 53.1 °F 53% 30.11 in 10.0 mi North - - N/A   Partly Cloudy
12:37 PM 71.6 °F 51.8 °F 50% 30.10 in 2.5 mi North - - N/A   Haze
12:52 PM 73.9 °F 53.1 °F 48% 30.09 in 10.0 mi Variable 4.6 mph - N/A   Clear
1:52 PM 75.0 °F 53.1 °F 46% 30.08 in 10.0 mi Variable 3.5 mph - N/A   Clear
2:52 PM 75.9 °F 51.1 °F 42% 30.06 in 10.0 mi Calm Calm - N/A   Clear
3:52 PM 75.9 °F 53.1 °F 45% 30.04 in 10.0 mi Variable 4.6 mph - N/A   Clear
4:52 PM 77.0 °F 53.1 °F 43% 30.04 in 10.0 mi Calm Calm - N/A   Clear
5:52 PM 75.9 °F 53.1 °F 45% 30.04 in 10.0 mi West 3.5 mph - N/A   Clear
6:52 PM 72.0 °F 55.0 °F 55% 30.04 in 10.0 mi NW 3.5 mph - N/A   Clear
7:52 PM 66.0 °F 55.0 °F 68% 30.05 in 10.0 mi North 3.5 mph - N/A   Clear
8:52 PM 59.0 °F 54.0 °F 83% 30.07 in 10.0 mi Calm Calm - N/A   Clear
9:52 PM 55.9 °F 53.1 °F 90% 30.06 in 10.0 mi Calm Calm - N/A   Clear
10:52 PM 55.9 °F 52.0 °F 87% 30.07 in 10.0 mi Calm Calm - N/A   Clear
11:52 PM 55.0 °F 52.0 °F 89% 30.07 in 10.0 mi Calm Calm - N/A   Clear